Time,TemperatureF,DewpointF,PressureIn,WindDirection,WindDirectionDegrees,WindSpeedMPH,WindSpeedGustMPH,Humidity,HourlyPrecipIn,Conditions,Clouds,dailyrainin,SoftwareType,DateUTC
2013-07-03 00:02:00,71.0,64.0,30.13,ENE,61,0.0,3.0,78,0.00,,,0.19,,2013-07-03 04:02:00,
2013-07-03 00:22:00,71.0,64.0,30.13,ENE,62,0.0,3.0,79,0.00,,,0.19,,2013-07-03 04:22:00,
2013-07-03 00:34:00,71.0,65.0,30.14,ENE,72,1.0,4.0,81,0.00,,,0.19,,2013-07-03 04:34:00,
2013-07-03 00:43:00,70.0,64.0,30.13,ENE,69,0.0,3.0,82,0.00,,,0.19,,2013-07-03 04:43:00,
2013-07-03 00:52:00,70.0,65.0,30.13,ENE,71,0.0,2.0,83,0.00,,,0.19,,2013-07-03 04:52:00,
2013-07-03 01:02:00,69.0,64.0,30.14,ENE,71,0.0,1.0,85,0.00,,,0.19,,2013-07-03 05:02:00,
2013-07-03 01:11:00,69.0,64.0,30.14,ENE,71,0.0,1.0,85,0.00,,,0.19,,2013-07-03 05:11:00,
2013-07-03 01:39:00,69.0,65.0,30.13,ENE,71,1.0,2.0,86,0.00,,,0.19,,2013-07-03 05:39:00,
2013-07-03 01:48:00,69.0,65.0,30.13,ENE,72,0.0,1.0,86,0.00,,,0.19,,2013-07-03 05:48:00,
2013-07-03 01:57:00,69.0,65.0,30.13,ENE,72,0.0,1.0,86,0.00,,,0.19,,2013-07-03 05:57:00,
2013-07-03 02:08:00,68.0,63.0,30.14,ENE,72,0.0,0.0,85,0.00,,,0.19,,2013-07-03 06:08:00,
2013-07-03 02:15:00,68.0,63.0,30.13,ENE,72,0.0,0.0,85,0.00,,,0.19,,2013-07-03 06:15:00,
2013-07-03 02:39:00,68.0,64.0,30.14,ENE,72,0.0,1.0,86,0.00,,,0.17,,2013-07-03 06:39:00,
2013-07-03 02:50:00,68.0,64.0,30.14,ENE,71,0.0,3.0,87,0.00,,,0.17,,2013-07-03 06:50:00,
2013-07-03 02:55:00,68.0,64.0,30.14,ENE,73,0.0,2.0,87,0.00,,,0.17,,2013-07-03 06:55:00,
2013-07-03 03:07:00,68.0,64.0,30.14,ENE,73,0.0,1.0,87,0.00,,,0.17,,2013-07-03 07:07:00,
2013-07-03 03:38:00,67.0,63.0,30.14,ENE,73,0.0,0.0,88,0.00,,,0.00,,2013-07-03 07:38:00,
2013-07-03 03:47:00,67.0,64.0,30.14,ENE,73,0.0,1.0,89,0.00,,,0.00,,2013-07-03 07:47:00,
2013-07-03 03:58:00,67.0,64.0,30.14,ENE,73,0.0,0.0,89,0.00,,,0.00,,2013-07-03 07:58:00,
2013-07-03 04:16:00,66.0,63.0,30.14,ENE,73,0.0,1.0,90,0.00,,,0.00,,2013-07-03 08:16:00,
2013-07-03 05:57:00,66.0,63.0,30.16,ENE,75,0.0,0.0,89,0.00,,,0.00,,2013-07-03 09:57:00,
2013-07-03 06:36:00,67.0,63.0,30.17,ENE,75,0.0,0.0,86,0.00,,,0.00,,2013-07-03 10:36:00,
2013-07-03 06:45:00,67.0,63.0,30.17,ENE,75,0.0,1.0,86,0.00,,,0.00,,2013-07-03 10:45:00,
2013-07-03 06:55:00,67.0,63.0,30.18,ENE,75,0.0,1.0,86,0.00,,,0.00,,2013-07-03 10:55:00,
2013-07-03 07:16:00,67.0,63.0,30.18,ENE,75,0.0,1.0,87,0.00,,,0.00,,2013-07-03 11:16:00,
2013-07-03 07:54:00,67.0,64.0,30.19,ENE,76,0.0,2.0,90,0.00,,,0.00,,2013-07-03 11:54:00,
2013-07-03 08:08:00,68.0,64.0,30.19,ENE,78,0.0,3.0,88,0.00,,,0.00,,2013-07-03 12:08:00,
2013-07-03 08:16:00,69.0,65.0,30.19,ENE,78,0.0,3.0,88,0.00,,,0.00,,2013-07-03 12:16:00,
2013-07-03 08:37:00,71.0,66.0,30.20,ENE,78,0.0,0.0,85,0.00,,,0.00,,2013-07-03 12:37:00,
2013-07-03 08:44:00,71.0,66.0,30.20,ENE,78,0.0,1.0,84,0.00,,,0.00,,2013-07-03 12:44:00,
2013-07-03 09:08:00,73.0,68.0,30.21,ENE,78,0.0,1.0,85,0.00,,,0.00,,2013-07-03 13:08:00,
2013-07-03 10:54:00,75.0,66.0,30.23,South,189,0.0,7.0,74,0.00,,,0.00,,2013-07-03 14:54:00,
2013-07-03 11:06:00,76.0,67.0,30.23,SSE,159,0.0,7.0,73,0.00,,,0.00,,2013-07-03 15:06:00,
2013-07-03 11:47:00,77.0,67.0,30.24,SSE,165,1.0,9.0,71,0.00,,,0.00,,2013-07-03 15:47:00,
2013-07-03 11:55:00,77.0,66.0,30.24,SW,236,1.0,7.0,70,0.00,,,0.00,,2013-07-03 15:55:00,
2013-07-03 12:07:00,77.0,67.0,30.24,SSW,211,0.0,9.0,72,0.00,,,0.00,,2013-07-03 16:07:00,
2013-07-03 12:17:00,77.0,67.0,30.23,SW,220,1.0,4.0,72,0.00,,,0.00,,2013-07-03 16:17:00,
2013-07-03 12:39:00,77.0,67.0,30.23,SSE,167,1.0,7.0,72,0.00,,,0.00,,2013-07-03 16:39:00,
2013-07-03 13:40:00,78.0,68.0,30.22,West,269,0.0,13.0,71,0.00,,,0.00,,2013-07-03 17:40:00,
2013-07-03 13:53:00,79.0,68.0,30.22,SW,225,0.0,7.0,70,0.00,,,0.00,,2013-07-03 17:53:00,
2013-07-03 14:08:00,79.0,68.0,30.22,SW,226,0.0,5.0,69,0.00,,,0.00,,2013-07-03 18:08:00,
2013-07-03 14:16:00,80.0,68.0,30.21,SSW,198,1.0,6.0,67,0.00,,,0.00,,2013-07-03 18:16:00,
2013-07-03 14:37:00,80.0,70.0,30.20,SSE,153,0.0,5.0,72,0.00,,,0.00,,2013-07-03 18:37:00,
2013-07-03 14:56:00,80.0,70.0,30.20,WNW,288,2.0,11.0,71,0.00,,,0.00,,2013-07-03 18:56:00,
2013-07-03 15:38:00,81.0,69.0,30.19,SW,228,0.0,6.0,66,0.00,,,0.00,,2013-07-03 19:38:00,
2013-07-03 15:47:00,81.0,69.0,30.19,West,277,4.0,7.0,68,0.00,,,0.00,,2013-07-03 19:47:00,
2013-07-03 16:37:00,79.0,70.0,30.19,SW,219,0.0,2.0,73,0.00,,,0.00,,2013-07-03 20:37:00,
2013-07-03 16:45:00,79.0,69.0,30.19,SW,219,1.0,3.0,71,0.00,,,0.00,,2013-07-03 20:45:00,
2013-07-03 16:55:00,79.0,70.0,30.19,SW,219,0.0,3.0,75,0.00,,,0.00,,2013-07-03 20:55:00,
2013-07-03 17:06:00,79.0,70.0,30.18,SW,219,1.0,3.0,75,0.00,,,0.00,,2013-07-03 21:06:00,
2013-07-03 17:45:00,79.0,69.0,30.18,West,259,3.0,5.0,72,0.00,,,0.00,,2013-07-03 21:45:00,
2013-07-03 18:06:00,79.0,71.0,30.18,West,261,0.0,1.0,76,0.00,,,0.00,,2013-07-03 22:06:00,
2013-07-03 18:26:00,79.0,70.0,30.17,West,261,0.0,3.0,75,0.00,,,0.00,,2013-07-03 22:26:00,
2013-07-03 18:38:00,79.0,70.0,30.18,West,261,0.0,3.0,75,0.00,,,0.00,,2013-07-03 22:38:00,
2013-07-03 18:46:00,79.0,70.0,30.17,West,261,0.0,3.0,75,0.00,,,0.00,,2013-07-03 22:46:00,
2013-07-03 18:54:00,79.0,71.0,30.18,West,261,0.0,3.0,76,0.00,,,0.00,,2013-07-03 22:54:00,
2013-07-03 19:07:00,79.0,71.0,30.18,West,261,0.0,2.0,77,0.00,,,0.00,,2013-07-03 23:07:00,
2013-07-03 19:40:00,79.0,69.0,30.18,SSE,148,0.0,4.0,72,0.00,,,0.00,,2013-07-03 23:40:00,
2013-07-03 19:45:00,78.0,68.0,30.18,NE,56,0.0,5.0,72,0.00,,,0.00,,2013-07-03 23:45:00,
2013-07-03 19:55:00,77.0,67.0,30.19,ENE,58,0.0,5.0,72,0.00,,,0.00,,2013-07-03 23:55:00,
2013-07-03 20:17:00,77.0,68.0,30.19,ENE,78,0.0,3.0,73,0.00,,,0.00,,2013-07-04 00:17:00,
2013-07-03 20:26:00,76.0,67.0,30.19,ENE,68,0.0,3.0,75,0.00,,,0.00,,2013-07-04 00:26:00,
2013-07-03 20:37:00,75.0,67.0,30.19,ENE,68,0.0,3.0,75,0.00,,,0.00,,2013-07-04 00:37:00,
2013-07-03 20:56:00,75.0,67.0,30.19,ENE,69,0.0,3.0,76,0.00,,,0.00,,2013-07-04 00:56:00,
2013-07-03 21:05:00,74.0,65.0,30.19,ENE,73,0.0,2.0,74,0.00,,,0.00,,2013-07-04 01:05:00,
2013-07-03 21:24:00,74.0,66.0,30.19,ENE,73,0.0,1.0,75,0.00,,,0.00,,2013-07-04 01:24:00,
2013-07-03 21:39:00,74.0,66.0,30.20,ENE,73,0.0,1.0,75,0.00,,,0.00,,2013-07-04 01:39:00,
2013-07-03 21:44:00,73.0,65.0,30.20,ENE,73,0.0,2.0,75,0.00,,,0.00,,2013-07-04 01:44:00,
2013-07-03 21:54:00,74.0,66.0,30.20,ENE,73,0.0,1.0,75,0.00,,,0.00,,2013-07-04 01:54:00,
2013-07-03 22:08:00,73.0,65.0,30.20,ENE,73,0.0,1.0,75,0.00,,,0.00,,2013-07-04 02:08:00,
2013-07-03 22:24:00,73.0,65.0,30.22,ENE,73,0.0,0.0,76,0.00,,,0.00,,2013-07-04 02:24:00,
2013-07-03 22:55:00,72.0,65.0,30.23,ENE,73,0.0,1.0,78,0.00,,,0.00,,2013-07-04 02:55:00,
2013-07-03 23:05:00,72.0,65.0,30.23,East,79,0.0,1.0,78,0.00,,,0.00,,2013-07-04 03:05:00,
2013-07-03 23:46:00,71.0,65.0,30.22,East,79,0.0,0.0,82,0.00,,,0.00,,2013-07-04 03:46:00,
2013-07-03 23:56:00,71.0,65.0,30.22,East,79,0.0,1.0,82,0.00,,,0.00,,2013-07-04 03:56:00,